User: anonymous   Login
Location: Melbourne
(37.8170°S, 144.9670°E)
Time: 12:30:58
(UTC+11:00)
Language:

ERBS - Orbit

View from above orbital plane
View from above orbital plane
View from above satellite
View from above satellite

Ground track
Ground track

The orbit data is extracted from the following two-line orbital elements,

1 15354U 84108B   18022.94813153 +.00002287 +00000-0 +55904-4 0  9992
2 15354 057.0071 271.1411 0013439 141.1201 219.0824 15.45196380831883
Epoch (UTC): 22 January 2018 22:45:18
Eccentricity: 0.0013439
inclination: 57.0071°
perigee height: 421 km
apogee height: 440 km
right ascension of ascending node: 271.1411°
argument of perigee: 141.1201°
revolutions per day: 15.45196380
mean anomaly at epoch: 219.0824°
orbit number at epoch: 83188

The dashed part of the orbit path shows where the satellite is in the earth's shadow,  

DLR